sat.trackr.live / text

‹ back to catalog

UNICORN-2L

NORAD 58727 · 2023-185R

PAYLOAD ACTIVE UNKNOWN

§ Identity

Operator
Country
GER
Launch date
2023-12-01
Launch site
AFWTR
Launch vehicle
Mass (kg)
RCS (m²)

External: N2YO · Heavens-Above · Gunter

§ Orbital elements

Epoch: 2026-09-21T21:56:18.784320Z

Period
94.57 min
Inclination
97.5316°
Eccentricity
0.0011711
Mean motion
15.22602306 rev/d
Perigee alt
489.9 km
Apogee alt
506.0 km
Semi-major
6,876.1 km
B*
2.2815e-4
RAAN
338.9506°
Arg perigee
340.6469°
Mean anomaly
19.4321°
Rev number
14,950

§ Raw data

UNICORN-2L1 58727U 23185R   26264.91410630  .00005239  00000+0  22815-3 0  99912 58727  97.5316 338.9506 0011711 340.6469  19.4321 15.22602306149505

JSON: /api/v1/satellites/58727 · /tle

For live sub-satellite position, see the globe view (requires WebGL).

§ Visibility from observer

Set your observer location to see the next 7 days of passes ≥ 10°. The values pass through the URL so the page stays shareable.

No JS? Fill the form by hand. The geolocation button needs JavaScript.